Regional Weather Roundup
Issued by NWS

Home | Current Version | Previous Version | Text Only | Print | Product List | Glossary Off
Versions: 1 2 3 4 5 6 7 8 9 10 11 12 13 14 15 16 17 18 19 20 21 22 23 24 25 26 27 28 29 30 31 32 33 34 35 36 37 38 39 40 41 42 43 44 45 46 47 48 49 50

000
ASUS43 KBIS 261410
RWRND

NORTH DAKOTA REGIONAL WEATHER ROUNDUP
NATIONAL WEATHER SERVICE BISMARCK ND
900 AM CDT WED APR 26 2017

NOTE: "FAIR" INDICATES FEW OR NO CLOUDS BELOW 12,000 FEET WITH NO
SIGNIFICANT WEATHER AND/OR OBSTRUCTIONS TO VISIBILITY.


NDZ001>003-009>011-017-261500-
NORTHWEST NORTH DAKOTA

CITY           SKY/WX    TMP DP  RH WIND       PRES   REMARKS
WILLISTON      FAIR      31  21  66 NE7       29.96S
MINOT          FAIR      32  23  69 N14       29.93S
MINOT AFB      CLOUDY    32  21  64 N10       29.94S
$$

NDZ018>021-031>035-040>046-261500-
SOUTHWEST NORTH DAKOTA

CITY           SKY/WX    TMP DP  RH WIND       PRES   REMARKS
BISMARCK       CLOUDY    32  24  72 N14       29.89S
DICKINSON      CLOUDY    31  23  72 NE9       29.88S
GARRISON         N/A     30  22  72 N8        29.91S
HETTINGER ARPT CLOUDY    32  22  66 N13       29.89S
$$

NDZ004>008-012>016-024-026-027-054-261500-
NORTHEAST NORTH DAKOTA

CITY           SKY/WX    TMP DP  RH WIND       PRES   REMARKS
GRAND FORKS    CLOUDY    31  25  78 NE18G28   29.84S WCI  19
DEVILS LAKE    CLOUDY    28  22  78 N20       29.88S WCI  15
$$

NDZ022-023-025-028>030-036>039-047>053-261500-
SOUTHEAST NORTH DAKOTA

CITY           SKY/WX    TMP DP  RH WIND       PRES   REMARKS
FARGO          LGT SNOW  29  26  89 N22       29.77S VSB 3/4 WCI  15
JAMESTOWN      CLOUDY    28  25  88 N18       29.81R WCI  15
$$




USA.gov is the U.S. government's official web portal to all federal, state and local government web resources and services.